Location: Carnières
(50.1682°N, 3.3474°E)
Time: 12:58:59
(UTC+00:00)

CZ-2D R/B - Pass Details

Date: 23 May 2024
Orbit: 790 x 843 km, 98.8° (Epoch: 16 June)

Event Time Altitude Azimuth Distance (km) Brightness Sun altitude
Rises 01:50:17 0° 16° (NNE) 3,414 7.0 -13.8°
Reaches altitude 10° 01:52:40 10° 18° (NNE) 2,473 6.0 -13.6°
Maximum altitude 01:58:10 77° 104° (ESE) 866 2.3 -13.2°
Enters shadow 02:02:43 15° 190° (S) 2,099 3.7 -12.8°
